| time (UTC) | temp F | wind direction | speed MPH | gust MPH | rain 1hr in | rain 24hr in | rain mn in | humidity % | barometer mb |
| 20260507033038 | 64 | 286 | 12.0 | 19.0 | 0.00 | 0.00 | 0.00 | 38 | 1006.8 |
| 20260507031543 | 64 | 289 | 11.0 | 17.0 | 0.00 | 0.00 | 0.00 | 38 | 1007.0 |
| 20260507030043 | 63 | 301 | 5.0 | 12.0 | 0.00 | 0.00 | 0.00 | 38 | 1007.2 |
| 20260507024541 | 63 | 153 | 2.0 | 6.0 | 0.00 | 0.00 | 0.00 | 41 | 1007.2 |
| 20260507023037 | 64 | 155 | 3.0 | 8.0 | 0.00 | 0.00 | 0.00 | 40 | 1007.3 |
| 20260507021538 | 65 | 0 | 0.0 | 7.0 | 0.00 | 0.00 | 0.00 | 39 | 1007.3 |
| 20260507020045 | 66 | 60 | 3.0 | 14.0 | 0.00 | 0.00 | 0.00 | 38 | 1007.3 |
| 20260507014552 | 67 | 22 | 5.0 | 17.0 | 0.00 | 0.00 | 0.00 | 39 | 1007.2 |
| 20260507013043 | 69 | 331 | 4.0 | 12.0 | 0.00 | 0.00 | 0.00 | 24 | 1007.2 |
| 20260507011542 | 69 | 40 | 1.0 | 5.0 | 0.00 | 0.00 | 0.00 | 22 | 1006.8 |
| 20260507010042 | 70 | 32 | 2.0 | 5.0 | 0.00 | 0.00 | 0.00 | 21 | 1007.1 |
| 20260507004536 | 70 | 28 | 2.0 | 6.0 | 0.00 | 0.00 | 0.00 | 20 | 1007.2 |
| 20260507003036 | 71 | 355 | 4.0 | 9.0 | 0.00 | 0.00 | 0.00 | 21 | 1007.3 |
| 20260507001553 | 72 | 5 | 5.0 | 11.0 | 0.00 | 0.00 | 0.00 | 20 | 1007.3 |
| 20260507000038 | 72 | 16 | 8.0 | 16.0 | 0.00 | 0.00 | 0.00 | 20 | 1007.4 |
| 20260506234601 | 72 | 355 | 9.0 | 24.0 | 0.00 | 0.00 | 0.00 | 19 | 1007.6 |
| 20260506233039 | 73 | 334 | 10.0 | 21.0 | 0.00 | 0.00 | 0.00 | 19 | 1007.7 |
| 20260506231537 | 72 | 318 | 11.0 | 21.0 | 0.00 | 0.00 | 0.00 | 20 | 1008.0 |
| 20260506230052 | 72 | 299 | 9.0 | 20.0 | 0.00 | 0.00 | 0.00 | 20 | 1008.1 |
| 20260506224540 | 72 | 328 | 13.0 | 22.0 | 0.00 | 0.00 | 0.00 | 19 | 1008.0 |
| 20260506223042 | 72 | 352 | 14.0 | 20.0 | 0.00 | 0.00 | 0.00 | 19 | 1008.2 |
| 20260506221552 | 72 | 355 | 8.0 | 23.0 | 0.00 | 0.00 | 0.00 | 20 | 1008.3 |
| 20260506220049 | 71 | 339 | 10.0 | 20.0 | 0.00 | 0.00 | 0.00 | 21 | 1008.5 |
| 20260506214544 | 71 | 343 | 4.0 | 20.0 | 0.00 | 0.00 | 0.00 | 20 | 1008.6 |
| 20260506213048 | 71 | 338 | 15.0 | 20.0 | 0.00 | 0.00 | 0.00 | 21 | 1008.7 |
| 20260506211549 | 70 | 288 | 9.0 | 24.0 | 0.00 | 0.00 | 0.00 | 21 | 1009.1 |
| 20260506210046 | 70 | 344 | 11.0 | 19.0 | 0.00 | 0.00 | 0.00 | 20 | 1009.2 |
| 20260506204539 | 70 | 323 | 6.0 | 15.0 | 0.00 | 0.00 | 0.00 | 22 | 1009.2 |
| 20260506203045 | 69 | 277 | 7.0 | 21.0 | 0.00 | 0.00 | 0.00 | 25 | 1009.2 |
| 20260506201545 | 68 | 164 | 2.0 | 9.0 | 0.00 | 0.00 | 0.00 | 25 | 1009.5 |
| 20260506200045 | 67 | 107 | 2.0 | 14.0 | 0.00 | 0.00 | 0.00 | 24 | 1009.5 |
| 20260506194544 | 65 | 265 | 4.0 | 10.0 | 0.00 | 0.00 | 0.00 | 25 | 1009.9 |
| 20260506193046 | 64 | 291 | 5.0 | 13.0 | 0.00 | 0.00 | 0.00 | 26 | 1010.3 |
| 20260506191535 | 63 | 254 | 7.0 | 12.0 | 0.00 | 0.00 | 0.00 | 25 | 1010.7 |
| 20260506190042 | 61 | 212 | 7.0 | 16.0 | 0.00 | 0.00 | 0.00 | 25 | 1011.0 |
| 20260506184541 | 61 | 237 | 6.0 | 16.0 | 0.00 | 0.00 | 0.00 | 26 | 1011.4 |
| 20260506183037 | 60 | 198 | 6.0 | 11.0 | 0.00 | 0.00 | 0.00 | 27 | 1011.7 |
| 20260506181543 | 59 | 263 | 6.0 | 14.0 | 0.00 | 0.00 | 0.00 | 28 | 1012.0 |
| 20260506180044 | 57 | 192 | 8.0 | 15.0 | 0.00 | 0.00 | 0.00 | 27 | 1012.3 |
| 20260506174542 | 57 | 246 | 10.0 | 16.0 | 0.00 | 0.00 | 0.00 | 27 | 1012.5 |
| 20260506173104 | 56 | 170 | 9.0 | 17.0 | 0.00 | 0.00 | 0.00 | 29 | 1012.5 |
| 20260506171542 | 55 | 205 | 8.0 | 15.0 | 0.00 | 0.00 | 0.00 | 30 | 1012.9 |
| 20260506170051 | 54 | 190 | 8.0 | 15.0 | 0.00 | 0.00 | 0.00 | 29 | 1013.2 |
| 20260506164536 | 53 | 208 | 9.0 | 16.0 | 0.00 | 0.00 | 0.00 | 31 | 1013.5 |
| 20260506163053 | 51 | 180 | 7.0 | 14.0 | 0.00 | 0.00 | 0.00 | 33 | 1013.5 |
| 20260506161542 | 50 | 193 | 10.0 | 14.0 | 0.00 | 0.00 | 0.00 | 36 | 1013.8 |
| 20260506160042 | 49 | 189 | 8.0 | 16.0 | 0.00 | 0.00 | 0.00 | 38 | 1014.1 |
| 20260506154547 | 47 | 171 | 8.0 | 16.0 | 0.00 | 0.00 | 0.00 | 41 | 1014.1 |
| 20260506153043 | 46 | 159 | 7.0 | 12.0 | 0.00 | 0.00 | 0.00 | 43 | 1014.3 |
| 20260506151543 | 44 | 185 | 7.0 | 13.0 | 0.00 | 0.00 | 0.00 | 44 | 1014.4 |
| 20260506150043 | 42 | 174 | 8.0 | 13.0 | 0.00 | 0.00 | 0.00 | 47 | 1014.6 |
| 20260506144544 | 41 | 148 | 7.0 | 14.0 | 0.00 | 0.00 | 0.00 | 49 | 1014.9 |
| 20260506143036 | 40 | 171 | 9.0 | 15.0 | 0.00 | 0.00 | 0.00 | 51 | 1014.9 |
| 20260506141537 | 39 | 159 | 8.0 | 12.0 | 0.00 | 0.00 | 0.00 | 52 | 1015.0 |
| 20260506140043 | 38 | 150 | 9.0 | 14.0 | 0.00 | 0.00 | 0.00 | 53 | 1014.9 |
| 20260506134543 | 36 | 162 | 8.0 | 14.0 | 0.00 | 0.00 | 0.00 | 54 | 1015.3 |
| 20260506133047 | 35 | 150 | 7.0 | 10.0 | 0.00 | 0.00 | 0.00 | 56 | 1015.5 |
| 20260506131545 | 32 | 169 | 5.0 | 10.0 | 0.00 | 0.00 | 0.00 | 60 | 1015.4 |
| 20260506130044 | 30 | 167 | 5.0 | 8.0 | 0.00 | 0.00 | 0.00 | 61 | 1015.4 |
| 20260506124543 | 29 | 161 | 5.0 | 8.0 | 0.00 | 0.00 | 0.00 | 63 | 1015.4 |
| 20260506123043 | 27 | 157 | 6.0 | 8.0 | 0.00 | 0.00 | 0.00 | 63 | 1015.6 |
| 20260506121539 | 27 | 160 | 6.0 | 8.0 | 0.00 | 0.00 | 0.00 | 63 | 1015.6 |
| 20260506120045 | 26 | 159 | 5.0 | 8.0 | 0.00 | 0.00 | 0.00 | 64 | 1015.8 |
| 20260506114540 | 26 | 163 | 4.0 | 7.0 | 0.00 | 0.00 | 0.00 | 63 | 1015.8 |
| 20260506113035 | 26 | 161 | 5.0 | 7.0 | 0.00 | 0.00 | 0.00 | 63 | 1016.1 |
| 20260506111543 | 26 | 164 | 5.0 | 6.0 | 0.00 | 0.00 | 0.00 | 63 | 1016.3 |
| 20260506110043 | 26 | 161 | 5.0 | 7.0 | 0.00 | 0.00 | 0.00 | 63 | 1016.5 |
| 20260506104602 | 26 | 161 | 5.0 | 7.0 | 0.00 | 0.00 | 0.00 | 62 | 1016.6 |
| 20260506103045 | 27 | 156 | 5.0 | 8.0 | 0.00 | 0.00 | 0.00 | 62 | 1016.8 |
| 20260506101536 | 26 | 155 | 5.0 | 8.0 | 0.00 | 0.00 | 0.00 | 62 | 1016.7 |
| 20260506100045 | 26 | 157 | 5.0 | 8.0 | 0.00 | 0.00 | 0.00 | 62 | 1016.9 |
| 20260506094540 | 26 | 185 | 4.0 | 5.0 | 0.00 | 0.00 | 0.00 | 61 | 1017.0 |
| 20260506093037 | 27 | 194 | 1.0 | 3.0 | 0.00 | 0.00 | 0.00 | 60 | 1017.3 |
| 20260506091536 | 27 | 194 | 1.0 | 4.0 | 0.00 | 0.00 | 0.00 | 61 | 1017.5 |
| 20260506090043 | 27 | 195 | 3.0 | 4.0 | 0.00 | 0.00 | 0.00 | 60 | 1017.5 |
| 20260506084537 | 27 | 196 | 3.0 | 6.0 | 0.00 | 0.00 | 0.00 | 60 | 1017.6 |
| 20260506083043 | 27 | 202 | 2.0 | 4.0 | 0.00 | 0.00 | 0.00 | 60 | 1017.8 |
| 20260506081537 | 27 | 205 | 2.0 | 3.0 | 0.00 | 0.00 | 0.00 | 59 | 1018.0 |
| 20260506073042 | 27 | 207 | 1.0 | 3.0 | 0.00 | 0.00 | 0.00 | 58 | 1018.4 |
| 20260506071540 | 28 | 207 | 1.0 | 5.0 | 0.00 | 0.00 | 0.00 | 55 | 1018.6 |
| 20260506061543 | 31 | 162 | 1.0 | 5.0 | 0.00 | 0.00 | 0.00 | 53 | 1018.8 |
| 20260506044545 | 36 | 115 | 1.0 | 4.0 | 0.00 | 0.00 | 0.00 | 47 | 1018.9 |
| 20260506043052 | 36 | 114 | 3.0 | 4.0 | 0.00 | 0.00 | 0.00 | 46 | 1019.0 |
| 20260506041538 | 36 | 108 | 1.0 | 3.0 | 0.00 | 0.00 | 0.00 | 45 | 1019.1 |
| 20260506040046 | 37 | 107 | 1.0 | 4.0 | 0.00 | 0.00 | 0.00 | 45 | 1019.2 |
| 20260506034543 | 37 | 105 | 1.0 | 4.0 | 0.00 | 0.00 | 0.00 | 45 | 1019.2 |